Quillayute, WA

9:43 AM PDT on March 27, 2017 (GMT -0700)
Quillayute

Weather History for KUIL - October, 2013

Change the Weather History Date:

Sunday, October 13, 2013

  Actual Average Record
Temperature  
Mean Temperature 50 °F 50 °F  
Max Temperature 63 °F 59 °F 73 °F (1982)
Min Temperature 36 °F 42 °F 30 °F (1966)
Degree Days  
Heating Degree Days 15 14  
Month to date heating degree days 149 170  
Since 1 July heating degree days 440 795  
Cooling Degree Days 0 0  
Month to date cooling degree days 0 0  
Year to date cooling degree days 39 19  
Moisture  
Dew Point 41 °F    
Average Humidity 70    
Maximum Humidity 89    
Minimum Humidity 51    
Precipitation  
Precipitation 0.00 in 0.32 in 1.92 in (2014)
Month to date precipitation 2.60 3.46  
Year to date precipitation 74.01 64.00  
Sea Level Pressure  
Sea Level Pressure 30.30 in    
Wind  
Wind Speed 3 mph (NNE)    
Max Wind Speed 12 mph    
Max Gust Speed 15 mph    
Visibility 5 miles    
Events      
T = Trace of Precipitation, MM = Missing Value Source: NWS Daily Summary

Daily Weather History Graph

Daily Weather History Graph

Search for Another Location

Airport or City:

Trip Planner

Search our weather history database for the weather conditions in past years. The results will help you decide how hot, cold, wet, or windy it might be!

Date:

Astronomy

Oct. 13, 2013 Rise Set
Actual Time 7:35 AM PDT 6:32 PM PDT
Civil Twilight 7:03 AM PDT 7:04 PM PDT
Nautical Twilight 6:27 AM PDT 7:39 PM PDT
Astronomical Twilight 5:51 AM PDT 8:15 PM PDT
Moon 3:48 PM PDT (10/13) 1:27 AM PDT (10/13)
Length of Visible Light 12h 00m
Length of Day
10h 57m
Waxing Gibbous, 70% of the Moon is Illuminated
Oct 13
Waxing Gibbous
Oct 18
Full
Oct 26
Last Quarter
Nov 3
New
Nov 9
First Quarter

Hourly Weather History & Observations

Time (PDT) Temp. Windchill Dew Point Humidity Pressure Visibility Wind Dir Wind Speed Gust Speed Precip Events Conditions
12:01 AM 42.8 °F - 37.4 °F 81% 30.22 in 0.8 mi Calm Calm - N/A   Clear
12:08 AM 41.0 °F - 37.4 °F 87% 30.22 in 1.5 mi Calm Calm - N/A   Clear
12:11 AM 41.0 °F - 37.4 °F 87% 30.22 in 3.0 mi Calm Calm - N/A   Clear
12:53 AM 43.0 °F 40.3 °F 39.9 °F 89% 30.24 in 6.0 mi ENE 4.6 mph - N/A   Clear
1:53 AM 42.1 °F - 37.9 °F 85% 30.25 in 6.0 mi Calm Calm - N/A   Clear
2:24 AM 41.0 °F - 37.4 °F 87% 30.26 in 1.8 mi Calm Calm - N/A   Clear
2:36 AM 41.0 °F 37.1 °F 37.4 °F 87% 30.26 in 3.0 mi East 5.8 mph - N/A   Clear
2:53 AM 43.0 °F 39.5 °F 39.0 °F 86% 30.25 in 7.0 mi East 5.8 mph - N/A   Clear
3:53 AM 39.9 °F - 36.0 °F 86% 30.26 in 6.0 mi Calm Calm - N/A   Clear
4:53 AM 39.0 °F 36.8 °F 36.0 °F 89% 30.27 in 7.0 mi ENE 3.5 mph - N/A   Clear
5:53 AM 39.9 °F - 36.0 °F 86% 30.27 in 6.0 mi Calm Calm - N/A   Clear
6:53 AM 37.9 °F 35.5 °F 34.0 °F 86% 30.29 in 6.0 mi East 3.5 mph - N/A   Clear
7:53 AM 37.9 °F - 34.0 °F 86% 30.30 in 3.0 mi Calm Calm - N/A   Clear
8:53 AM 43.0 °F - 37.9 °F 82% 30.31 in 5.0 mi Calm Calm - N/A   Haze
9:53 AM 48.0 °F - 42.1 °F 80% 30.31 in 6.0 mi East 3.5 mph - N/A   Haze
10:53 AM 52.0 °F - 44.1 °F 74% 30.32 in 6.0 mi Calm Calm - N/A   Haze
11:53 AM 59.0 °F - 46.9 °F 64% 30.31 in 6.0 mi Calm Calm - N/A   Haze
12:53 PM 63.0 °F - 48.0 °F 58% 30.31 in 6.0 mi SSW 3.5 mph - N/A   Haze
1:53 PM 62.1 °F - 48.9 °F 62% 30.31 in 6.0 mi West 9.2 mph - N/A   Haze
2:53 PM 63.0 °F - 46.0 °F 54% 30.31 in 6.0 mi West 8.1 mph - N/A   Haze
3:53 PM 61.0 °F - 43.0 °F 52% 30.31 in 6.0 mi WNW 10.4 mph - N/A   Haze
4:53 PM 61.0 °F - 45.0 °F 56% 30.31 in 6.0 mi NW 5.8 mph - N/A   Haze
5:53 PM 57.0 °F - 45.0 °F 64% 30.32 in 6.0 mi NW 5.8 mph - N/A   Haze
6:53 PM 53.1 °F - 45.0 °F 74% 30.33 in 6.0 mi NNW 5.8 mph - N/A   Haze
7:53 PM 51.1 °F - 44.1 °F 77% 30.34 in 7.0 mi Calm Calm - N/A   Clear
8:53 PM 48.9 °F - 43.0 °F 80% 30.35 in 6.0 mi Calm Calm - N/A   Haze
9:53 PM 46.9 °F - 42.1 °F 83% 30.35 in 6.0 mi Calm Calm - N/A   Haze
10:53 PM 46.0 °F - 41.0 °F 83% 30.36 in 5.0 mi Calm Calm - N/A   Haze
11:53 PM 45.0 °F - 41.0 °F 86% 30.36 in 5.0 mi Calm Calm - N/A   Clear